TimeEST,TemperatureF,Dew PointF,Humidity,Sea Level PressureIn,VisibilityMPH,Wind Direction,Wind SpeedMPH,Gust SpeedMPH,PrecipitationIn,Events,Conditions,WindDirDegrees,DateUTC
12:29 AM,33.8,33.8,100,29.84,1.2,NW,3.5,-,0.00,Snow,Light Snow,320,2013-02-08 05:29:00
12:53 AM,33.1,33.1,100,29.87,1.2,Calm,Calm,-,0.00,Snow,Light Snow,0,2013-02-08 05:53:00
1:00 AM,33.8,33.8,100,29.85,1.5,North,3.5,-,0.00,Snow,Light Snow,360,2013-02-08 06:00:00
1:18 AM,33.8,33.8,100,29.85,2.0,Calm,Calm,-,0.00,,Overcast,0,2013-02-08 06:18:00
1:53 AM,33.1,33.1,100,29.87,1.8,Variable,3.5,-,0.00,,Overcast,0,2013-02-08 06:53:00
2:53 AM,32.0,32.0,100,29.91,2.0,Variable,5.8,-,0.00,Snow,Light Snow,0,2013-02-08 07:53:00
3:08 AM,32.0,32.0,100,29.89,3.0,Variable,6.9,-,0.00,,Overcast,0,2013-02-08 08:08:00
3:35 AM,32.0,32.0,100,29.90,2.5,North,8.1,18.4,0.00,Snow,Light Snow,360,2013-02-08 08:35:00
3:53 AM,32.0,32.0,100,29.92,2.5,Variable,4.6,-,0.00,Snow,Light Snow,0,2013-02-08 08:53:00
4:06 AM,32.0,32.0,100,29.91,3.0,North,9.2,17.3,0.00,Snow,Light Snow,350,2013-02-08 09:06:00
4:16 AM,32.0,32.0,100,29.92,4.0,North,6.9,19.6,0.00,,Overcast,350,2013-02-08 09:16:00
4:26 AM,30.2,30.2,100,29.92,5.0,Variable,4.6,-,0.00,,Overcast,0,2013-02-08 09:26:00
4:53 AM,30.9,30.9,100,29.96,7.0,North,9.2,-,0.00,,Overcast,10,2013-02-08 09:53:00
5:53 AM,30.0,30.0,100,30.00,8.0,North,8.1,-,N/A,,Overcast,360,2013-02-08 10:53:00
6:10 AM,30.2,30.2,100,29.99,8.0,North,8.1,-,N/A,,Overcast,10,2013-02-08 11:10:00
6:21 AM,30.2,30.2,100,30.00,9.0,North,8.1,-,N/A,,Overcast,360,2013-02-08 11:21:00
6:53 AM,30.9,30.0,96,30.04,6.0,North,9.2,-,N/A,,Overcast,360,2013-02-08 11:53:00
7:53 AM,30.9,28.9,92,30.09,10.0,NNE,8.1,16.1,N/A,,Overcast,20,2013-02-08 12:53:00
8:53 AM,30.9,28.9,92,30.13,10.0,NNE,9.2,21.9,N/A,,Overcast,20,2013-02-08 13:53:00
9:53 AM,30.9,30.0,96,30.16,10.0,North,12.7,20.7,N/A,,Overcast,10,2013-02-08 14:53:00
10:53 AM,30.0,28.0,92,30.19,10.0,North,8.1,20.7,N/A,,Overcast,360,2013-02-08 15:53:00
11:53 AM,30.0,27.0,88,30.23,10.0,Variable,6.9,16.1,N/A,,Overcast,0,2013-02-08 16:53:00
12:53 PM,30.9,27.0,85,30.24,10.0,North,10.4,17.3,N/A,,Mostly Cloudy,360,2013-02-08 17:53:00
1:27 PM,30.2,30.2,100,30.22,10.0,North,8.1,-,N/A,,Scattered Clouds,10,2013-02-08 18:27:00
1:53 PM,32.0,30.0,92,30.25,10.0,Variable,5.8,18.4,N/A,,Partly Cloudy,0,2013-02-08 18:53:00
2:53 PM,33.1,25.0,72,30.25,10.0,Variable,6.9,-,N/A,,Scattered Clouds,0,2013-02-08 19:53:00
3:53 PM,33.1,24.1,70,30.28,10.0,Variable,4.6,-,N/A,,Mostly Cloudy,0,2013-02-08 20:53:00
4:53 PM,32.0,21.9,66,30.29,10.0,North,8.1,-,N/A,,Overcast,350,2013-02-08 21:53:00
5:42 PM,32.0,21.2,64,30.28,10.0,Variable,5.8,-,N/A,,Overcast,0,2013-02-08 22:42:00
5:53 PM,32.0,21.0,64,30.31,10.0,Variable,5.8,-,N/A,,Overcast,0,2013-02-08 22:53:00
6:53 PM,30.9,21.0,67,30.33,10.0,NNW,5.8,-,N/A,,Overcast,340,2013-02-08 23:53:00
7:53 PM,30.0,21.0,69,30.34,10.0,Variable,3.5,-,N/A,,Overcast,0,2013-02-09 00:53:00
8:53 PM,30.0,21.0,69,30.35,10.0,North,4.6,-,N/A,,Overcast,360,2013-02-09 01:53:00
9:53 PM,30.0,21.9,72,30.38,10.0,Calm,Calm,-,N/A,,Overcast,0,2013-02-09 02:53:00
10:53 PM,28.9,21.9,75,30.38,10.0,NE,4.6,-,N/A,,Overcast,50,2013-02-09 03:53:00
11:53 PM,28.0,19.9,72,30.39,10.0,ENE,6.9,-,N/A,,Overcast,60,2013-02-09 04:53:00